CAPE
13 14 16 15 12 13 15 14 12 12 12 12 9 9 2 0 0 0 0 0 0 0 0 0 0 0 0 0 0 0 0 0 0 0 0 0 0 0 0 0 0 0 0 0 0
18 15 19 16 14 13 13 14 11 11 12 10 8 5 1 0 0 0 0 0 0 0 0 0 0 0 0 0 0 0 0 0 0 0 0 0 0 0 0 0 0 0 0 0 1
17 15 20 14 18 13 13 9 10 10 5 4 4 1 0 0 0 0 0 0 0 0 0 0 0 0 0 0 0 0 0 0 0 0 0 0 0 0 0 0 0 0 0 0 2
20 21 21 17 17 15 13 12 6 3 2 1 0 0 0 0 0 0 0 0 0 0 0 0 0 0 0 0 0 0 0 0 0 0 0 0 0 0 0 0 0 0 0 0 0
12 17 19 17 17 16 15 8 1 1 0 0 0 0 0 0 0 0 0 0 0 0 0 0 0 0 0 0 0 0 0 0 0 0 0 0 0 0 0 0 0 0 0 0 1
18 14 14 14 12 15 10 0 0 0 0 0 0 0 0 0 0 0 0 0 0 0 0 0 0 0 0 0 0 0 0 0 0 0 0 0 0 0 0 0 0 0 0 0 0
22 20 12 15 13 11 0 0 0 0 0 0 0 0 0 0 0 0 0 0 0 0 0 0 0 0 0 0 0 0 0 0 0 0 0 0 0 0 0 0 0 0 0 0 0
11 17 16 16 16 6 0 0 0 0 0 0 0 0 0 0 0 0 0 0 0 0 0 0 0 0 0 0 0 0 0 0 0 0 0 0 0 0 0 0 0 0 0 0 0
16 14 13 14 20 2 0 0 0 0 0 0 0 0 0 0 0 0 0 0 0 0 0 0 0 0 0 0 0 0 0 0 0 0 0 0 0 0 0 0 0 0 0 0 0
20 21 17 20 22 2 0 0 0 0 0 0 0 0 0 0 0 0 0 0 0 0 0 0 0 0 0 0 0 0 0 0 0 0 0 0 0 0 0 0 0 0 0 0 0
18 20 13 16 20 0 0 0 0 0 0 0 0 0 0 0 0 0 0 0 0 0 0 0 0 0 0 0 0 0 0 0 0 0 0 0 0 0 0 0 0 0 0 0 0
17 17 9 8 2 0 0 0 8 0 0 0 0 0 0 0 0 0 0 0 0 0 0 0 0 0 0 0 0 0 0 0 0 0 0 0 0 0 0 0 0 0 0 0 0
15 8 5 2 0 0 0 0 0 0 0 0 0 0 0 0 0 0 0 0 0 0 0 0 0 0 0 0 0 0 0 0 0 0 0 0 0 0 0 0 0 0 0 0 0
7 3 6 0 0 0 0 0 0 0 0 0 0 0 0 0 0 0 0 0 0 0 0 0 0 0 0 0 0 0 0 0 0 0 0 0 0 0 0 0 0 0 0 0 0
3 7 0 0 0 0 0 0 0 0 0 0 0 0 0 0 0 0 0 0 0 0 0 0 0 0 0 0 0 0 0 0 0 0 0 0 0 0 0 0 0 0 0 0 0
0 3 0 0 0 0 0 0 0 0 0 0 0 0 0 0 0 0 0 0 0 0 0 0 0 0 0 0 0 0 0 0 0 0 0 0 0 0 0 0 0 0 0 0 0
0 0 0 0 0 0 0 0 0 0 0 0 0 0 0 0 0 0 0 0 0 0 0 0 0 0 0 0 0 0 0 0 0 0 0 0 0 0 0 0 0 0 0 0 0
0 0 0 0 0 0 0 0 0 0 0 0 0 0 0 0 0 0 0 0 0 0 0 0 0 0 0 0 0 0 0 0 0 0 0 0 0 0 0 0 0 0 0 0 0
0 0 0 0 0 0 0 0 0 0 0 0 0 0 0 0 0 0 0 0 0 0 0 0 0 0 0 0 0 0 0 0 3 0 0 0 0 0 0 0 0 0 0 0 0
0 0 0 0 0 0 0 0 1 0 0 0 0 0 0 0 0 0 0 0 0 0 0 0 0 0 0 0 0 0 0 0 0 0 0 0 0 0 0 0 0 0 0 0 0
0 0 0 0 0 0 0 0 0 0 0 0 0 0 0 0 0 0 0 0 0 0 0 0 0 0 0 0 0 0 1 1 0 0 2 0 0 0 0 0 0 0 0 0 0
0 0 0 0 0 0 0 0 0 0 0 0 0 0 0 0 0 0 0 0 0 0 0 0 0 0 0 0 0 0 0 0 0 0 0 7 2 0 0 0 0 0 0 0 2
0 0 0 0 0 0 0 0 0 0 0 0 0 0 0 0 0 0 0 0 0 0 0 0 0 0 0 0 0 0 0 0 0 0 0 3 0 0 0 0 0 0 0 7 1
0 0 0 0 0 0 0 0 0 0 0 0 0 0 0 0 0 0 0 0 0 0 0 17 6 0 0 0 0 0 0 0 6 0 0 0 0 0 0 0 0 0 9 6 0
0 0 0 0 0 0 0 0 0 0 0 0 0 0 0 1 0 0 0 0 0 0 0 0 2 0 0 0 0 0 0 0 0 0 0 0 0 0 0 0 0 0 6 9 9
0 0 0 0 0 0 0 0 0 0 0 0 0 0 0 0 0 0 0 0 0 0 0 0 0 0 0 0 0 0 0 0 0 0 0 0 0 0 0 0 0 0 19 4 8
0 0 0 0 0 0 0 0 0 0 0 0 0 0 0 0 0 0 0 0 0 1 3 2 0 0 0 0 0 0 0 0 0 0 0 0 0 0 0 0 0 1 6 9 6
CIN
-0 -0 -0 -0 -0 -0 -0 -0 -0 -0 -0 -0 -0 -0 -0 -0 -0 -0 -0 -0 -0 -0 -0 -0 -0 -0 -0 -0 -0 -0 -0 -0 -0 -0 -0 -0 -0 -0 -0 -0 -0 -0 -0 -0 -0
-0 -0 -0 -0 -0 -0 -0 -0 -0 -0 -0 -0 -0 -0 -0 -0 -0 -0 -0 -0 -0 -0 -0 -0 -0 -0 -0 -0 -0 -0 -0 -0 -0 -0 -0 -0 -0 -0 -0 -0 -0 -0 -0 -0 -0
-0 -0 -0 -0 -0 -0 -0 -0 -0 -0 -0 -0 -0 -0 -0 -0 -0 -0 -0 -0 -0 -0 -0 -0 -0 -0 -0 -0 -0 -0 -0 -0 -0 -0 -0 -0 -0 -0 -0 -0 -0 -0 -0 -0 -0
-0 -0 -0 -0 -0 -0 -0 -0 -0 -0 -0 -0 -0 -0 -0 -0 -0 -0 -0 -0 -0 -0 -0 -0 -0 -0 -0 -0 -0 -0 -0 -0 -0 -0 -0 -0 -0 -0 -0 -0 -0 -0 -0 -0 -0
-0 -0 -0 -0 -0 -0 -0 -0 -0 -0 -0 -0 -0 -0 -0 -0 -0 -0 -0 -0 -0 -0 -0 -0 -0 -0 -0 -0 -0 -0 -0 -0 -0 -0 -0 -0 -0 -0 -0 -0 -0 -0 -0 -0 -0
-0 -0 -0 -0 -0 -0 -0 -0 -0 -0 -0 -0 -0 -0 -0 -0 -0 -0 -0 -0 -0 -0 -0 -0 -0 -0 -0 -0 -0 -0 -0 -0 -0 -0 -0 -0 -0 -0 -0 -0 -0 -0 -0 -0 -0
-0 -0 -0 -0 -0 -0 -0 -0 -0 -0 -0 -0 -0 -0 -0 -0 -0 -0 -0 -0 -0 -0 -0 -0 -0 -0 -0 -0 -0 -0 -0 -0 -0 -0 -0 -0 -0 -0 -0 -0 -0 -0 -0 -0 -0
-0 -0 -0 -0 -0 -0 -0 -0 -0 -0 -0 -0 -0 -0 -0 -0 -0 -0 -0 -0 -0 -0 -0 -0 -0 -0 -0 -0 -0 -0 -0 -0 -0 -0 -0 -0 -0 -0 -0 -0 -0 -0 -0 -0 -0
-0 -0 -0 -0 -0 -0 -0 -0 -0 -0 -0 -0 -0 -0 -0 -0 -0 -0 -0 -0 -0 -0 -0 -0 -0 -0 -0 -0 -0 -0 -0 -0 -0 -0 -0 -0 -0 -0 -0 -0 -0 -0 -0 -0 -0
-0 -0 -0 -0 -0 -0 -0 -0 -0 -0 -0 -0 -0 -0 -0 -0 -0 -0 -0 -0 -0 -0 -0 -0 -0 -0 -0 -0 -0 -0 -0 -0 -0 -0 -0 -0 -0 -0 -0 -0 -0 -0 -0 -0 -0
-0 -0 -0 -0 -0 -0 -0 -0 -0 -0 -0 -0 -0 -0 -0 -0 -0 -0 -0 -0 -0 -0 -0 -0 -0 -0 -0 -0 -0 -0 -0 -0 -0 -0 -0 -0 -0 -0 -0 -0 -0 -0 -0 -0 -0
-0 -0 -0 -0 -0 -0 -0 -0 -2 -0 -0 -0 -0 -0 -0 -0 -0 -0 -0 -0 -0 -0 -0 -0 -0 -0 -0 -0 -0 -0 -0 -0 -0 -0 -0 -0 -0 -0 -0 -0 -0 -0 -0 -0 -0
-0 -0 -0 -0 -0 -0 -0 -0 -0 -0 -0 -0 -0 -0 -0 -0 -0 -0 -0 -0 -0 -0 -0 -0 -0 -0 -0 -0 -0 -0 -0 -0 -0 -0 -0 -0 -0 -0 -0 -0 -0 -0 -0 -0 -0
-0 -0 -0 -0 -0 -0 -0 -0 -0 -0 -0 -0 -0 -0 -0 -0 -0 -0 -0 -0 -0 -0 -0 -0 -0 -0 -0 -0 -0 -0 -0 -0 -0 -0 -0 -0 -0 -0 -0 -0 -0 -0 -0 -0 -0
-0 -0 -0 -0 -0 -0 -0 -0 -0 -0 -0 -0 -0 -0 -0 -0 -0 -0 -0 -0 -0 -0 -0 -0 -0 -0 -0 -0 -0 -0 -0 -0 -0 -0 -0 -0 -0 -0 -0 -0 -0 -0 -0 -0 -0
-0 -0 -0 -0 -0 -0 -0 -0 -0 -0 -0 -0 -0 -0 -0 -0 -0 -0 -0 -0 -0 -0 -0 -0 -0 -0 -0 -0 -0 -0 -0 -0 -0 -0 -0 -0 -0 -0 -0 -0 -0 -0 -0 -0 -0
-0 -0 -0 -0 -0 -0 -0 -0 -0 -0 -0 -0 -0 -0 -0 -0 -0 -0 -0 -0 -0 -0 -0 -0 -0 -0 -0 -0 -0 -0 -0 -0 -0 -0 -0 -0 -0 -0 -0 -0 -0 -0 -0 -0 -0
-0 -0 -0 -0 -0 -0 -0 -0 -0 -0 -0 -0 -0 -0 -0 -0 -0 -0 -0 -0 -0 -0 -0 -0 -0 -0 -0 -0 -0 -0 -0 -0 -0 -0 -0 -0 -0 -0 -0 -0 -0 -0 -0 -0 -0
-0 -0 -0 -0 -0 -0 -0 -0 -0 -0 -0 -0 -0 -0 -0 -0 -0 -0 -0 -0 -0 -0 -0 -0 -0 -0 -0 -0 -0 -0 -0 -0 -1 -0 -0 -0 -0 -0 -0 -0 -0 -0 -0 -0 -0
-0 -0 -0 -0 -0 -0 -0 -0 -0 -1 -0 -0 -0 -0 -0 -0 -0 -0 -0 -0 -0 -0 -0 -0 -0 -0 -0 -0 -0 -0 -0 -0 -0 -0 -0 -0 -0 -0 -0 -0 -0 -0 -0 -0 -0
-0 -0 -0 -0 -0 -0 -0 -0 -0 -0 -0 -0 -0 -0 -0 -0 -0 -0 -0 -0 -0 -0 -0 -0 -0 -0 -0 -0 -0 -0 -0 -1 -0 -0 -0 -0 -0 -0 -0 -0 -0 -0 -0 -0 -0
-0 -0 -0 -0 -0 -0 -0 -0 -0 -0 -0 -0 -0 -0 -5 -0 -0 -0 -0 -0 -0 -0 -0 -0 -4 -0 -0 -0 -0 -0 -0 -0 -0 -0 -0 -0 -0 -0 -0 -0 -0 -0 -0 -0 -0
-0 -0 -0 -0 -0 -0 -0 -0 -0 -0 -0 -0 -0 -0 -0 -0 -0 -0 -0 -0 -0 -0 -0 -0 -0 -0 -0 -0 -0 -0 -0 -0 -0 -0 -0 -0 -0 -0 -0 -0 -0 -0 -0 -0 -0
-0 -0 -0 -0 -0 -0 -0 -0 -0 -0 -0 -0 -0 -0 -0 -0 -0 -0 -0 -0 -0 -0 -0 -1 -0 -0 -0 -0 -0 -0 -0 -0 -0 -0 -0 -0 -0 -0 -0 -0 -0 -0 -0 -0 -0
-0 -0 -0 -0 -0 -0 -0 -0 -0 -0 -0 -0 -0 -0 -3 -0 -0 -0 -0 -0 -0 -0 -0 -0 -0 -0 -0 -0 -0 -0 -0 -0 -0 -0 -0 -0 -0 -0 -0 -0 -0 -0 -0 -0 -0
-0 -0 -0 -0 -0 -0 -0 -0 -0 -0 -0 -0 -0 -0 -0 -0 -0 -0 -0 -0 -0 -0 -0 -0 -0 -0 -0 -0 -0 -0 -0 -0 -0 -0 -0 -0 -0 -0 -0 -0 -0 -0 -0 -0 -0
-0 -0 -0 -0 -0 -0 -0 -0 -0 -0 -0 -0 -0 -0 -0 -0 -0 -0 -0 -0 -0 -0 -0 -1 -0 -0 -0 -0 -0 -0 -0 -0 -0 -0 -0 -0 -0 -0 -0 -0 -0 -0 -0 -0 -0
Wind_Speed
21 22 23 23 24 23 23 23 22 21 20 20 19 17 16 14 9 10 12 12 16 22 17 10 5 9 2 3 3 3 5 2 3 4 2 6 7 7 3 3 4 2 2 3 6
22 22 23 23 23 24 24 24 23 22 21 20 18 16 14 11 1 14 15 21 19 20 9 8 8 9 4 3 3 5 4 8 2 1 4 7 6 7 7 8 4 3 1 4 11
22 22 24 24 24 24 25 24 24 24 23 20 18 15 14 2 5 7 21 22 21 14 6 2 3 2 4 3 5 1 5 0 2 5 5 6 7 6 5 7 3 4 3 3 4
22 24 24 24 25 25 24 25 25 26 22 16 15 13 10 1 2 6 24 24 18 10 7 5 6 5 4 4 4 1 5 4 5 8 7 7 8 8 6 9 7 6 5 5 8
23 24 25 25 26 26 25 25 26 22 16 13 12 8 4 9 4 9 23 17 7 7 6 5 7 3 4 3 4 3 6 7 9 7 7 8 7 8 8 15 12 9 5 7 11
23 24 26 27 28 27 27 26 24 16 12 11 17 5 8 10 7 10 12 10 7 5 6 7 3 2 5 3 3 3 5 8 7 13 6 10 8 3 7 10 10 9 11 8 11
25 27 27 27 29 29 29 29 17 15 11 9 9 3 22 6 7 10 8 5 7 3 4 3 4 8 1 2 4 3 5 5 9 15 5 15 5 6 4 9 11 9 9 10 9
25 25 26 27 28 28 32 21 15 13 8 6 9 5 7 3 8 17 9 12 10 6 3 4 4 7 6 6 6 7 6 6 5 18 6 8 8 7 11 19 19 14 10 8 10
26 24 26 26 27 28 29 15 14 6 11 10 8 6 4 9 13 11 6 7 7 7 10 8 7 6 10 4 5 9 3 4 12 10 11 11 11 8 26 20 21 18 16 15 15
26 25 25 25 24 27 22 6 11 15 9 2 5 5 8 8 7 9 8 6 4 5 7 11 8 6 9 9 3 4 4 4 6 9 11 18 24 13 14 19 22 22 21 15 17
27 26 25 24 20 24 14 6 9 10 12 7 3 4 6 8 3 14 7 8 7 9 6 7 12 9 5 5 2 2 3 6 5 4 15 8 27 24 18 20 20 19 21 22 15
27 27 25 21 14 15 16 8 5 3 4 4 3 3 3 4 6 21 10 9 11 11 3 7 12 4 3 3 4 3 3 4 10 12 11 11 32 24 20 12 14 16 18 19 16
28 26 23 21 7 6 6 8 5 2 4 6 3 5 5 5 5 16 10 5 8 9 9 9 2 5 3 5 14 4 3 4 7 16 7 11 13 5 9 9 9 8 11 14 16
29 25 22 18 7 5 4 13 7 2 7 13 11 9 13 4 9 6 8 5 8 6 4 7 4 6 4 7 9 4 4 7 12 11 4 10 12 6 9 15 9 13 10 12 13
27 21 22 14 1 4 10 11 5 4 8 15 8 6 9 10 5 18 6 7 8 6 5 2 6 5 6 8 8 5 11 13 11 8 6 2 3 9 9 6 16 21 18 20 15
25 17 17 5 3 3 9 6 4 9 3 8 5 8 11 7 6 7 10 8 3 6 8 2 2 2 4 11 2 10 9 5 1 2 4 3 2 8 5 15 20 19 20 21 24
21 12 9 2 7 12 5 5 9 9 6 8 6 6 7 9 8 8 6 16 9 8 9 7 4 6 3 5 6 15 7 6 9 7 4 4 8 10 17 20 17 22 19 20 19
17 8 7 1 8 5 4 9 14 2 5 4 5 4 6 10 6 9 5 5 8 6 3 6 10 8 10 1 5 5 4 3 4 5 12 10 7 7 18 19 16 20 19 25 26
10 5 5 13 11 2 8 11 4 3 6 7 6 6 7 6 4 8 6 4 4 8 4 4 7 10 10 7 0 4 4 4 5 7 7 5 7 12 14 16 19 23 25 26 29
3 4 10 19 10 7 9 8 4 3 6 5 4 3 5 7 7 7 5 4 3 4 2 4 4 8 10 5 1 3 5 5 2 5 6 6 13 12 18 21 27 29 30 32 29
5 6 9 18 7 10 7 3 2 6 6 5 2 4 1 2 2 4 4 4 5 6 3 3 4 7 7 2 5 4 2 3 3 2 5 8 5 10 21 22 27 29 29 30 33
4 6 6 8 9 3 3 1 8 6 5 4 3 2 4 3 3 2 3 5 3 2 3 2 4 3 8 12 7 5 3 4 4 7 8 15 13 17 11 25 21 27 28 27 30
4 2 6 6 7 5 6 6 2 7 6 5 4 4 2 4 5 4 3 7 4 2 1 3 2 5 10 6 4 4 3 7 6 10 15 12 11 13 19 19 21 24 29 22 24
4 5 6 6 2 6 3 4 6 6 3 5 4 4 5 5 2 6 4 5 3 4 20 12 4 8 11 11 10 13 15 14 13 9 15 13 21 27 19 22 25 25 20 23 20
5 2 4 4 5 3 2 2 3 5 3 3 6 1 3 4 9 4 4 8 12 15 6 5 7 5 9 15 15 18 20 18 15 20 11 22 23 19 15 19 21 23 18 26 23
4 4 3 2 0 3 4 3 4 4 3 5 3 4 3 5 9 17 14 10 11 4 2 2 7 4 16 17 17 23 19 19 20 22 17 21 25 9 16 16 16 22 23 23 22
1 1 5 4 2 4 4 4 4 2 5 8 5 5 12 12 10 10 13 18 16 17 15 9 6 8 17 3 5 11 11 16 8 5 7 8 13 12 16 17 14 17 20 24 24
Wind_Direction
9 6 1 359 356 352 350 348 345 344 343 342 342 341 338 339 332 34 36 336 335 337 334 312 348 351 42 71 56 129 68 201 244 172 283 2 3 331 279 323 329 359 285 312 164
8 4 359 357 353 351 348 344 343 340 340 340 338 338 335 333 34 50 353 343 335 340 344 359 350 349 34 29 27 87 120 212 235 11 358 310 25 317 355 345 319 318 356 3 167
6 4 359 354 352 350 346 343 340 338 334 332 331 338 332 348 83 332 345 342 339 341 321 266 279 315 60 10 1 80 180 56 58 45 358 298 315 338 343 309 227 301 332 137 218
6 1 360 354 351 347 345 341 340 335 332 335 334 335 344 22 37 289 336 337 341 337 1 5 21 40 66 57 344 57 42 43 331 332 333 311 314 312 201 240 280 304 277 203 208
5 359 356 354 350 345 344 343 338 337 346 356 342 354 48 46 43 298 329 330 347 356 21 23 46 40 74 13 346 35 348 332 312 329 304 282 253 248 266 275 282 299 293 208 234
2 0 355 353 349 345 344 340 338 344 12 8 19 49 67 69 285 315 324 326 9 2 359 32 59 82 93 76 56 310 310 303 340 354 19 349 282 179 264 13 341 327 291 256 230
2 357 356 352 350 347 342 340 345 341 342 353 4 49 58 32 322 317 340 311 324 1 26 21 23 74 353 55 354 331 1 339 31 353 25 335 290 212 304 8 339 327 307 304 274
3 359 352 353 349 350 341 344 357 10 32 7 23 53 93 341 320 2 342 349 357 24 17 8 36 76 48 318 32 28 48 4 358 5 336 29 260 298 343 340 321 318 310 296 279
1 356 355 353 351 351 342 335 7 9 19 25 36 78 37 333 8 324 0 331 320 2 28 50 58 64 356 26 48 22 18 2 321 351 346 35 293 284 322 324 313 308 304 301 299
0 356 351 351 352 355 344 349 338 29 349 44 66 53 6 328 319 320 331 333 1 344 28 32 52 68 23 31 62 335 348 317 293 319 349 309 281 288 298 291 286 291 290 282 286
358 355 350 348 355 9 2 25 14 2 32 77 303 61 313 304 343 353 340 343 12 49 74 18 59 40 5 38 149 203 229 267 271 303 333 309 287 297 301 282 278 280 283 286 271
357 355 350 351 8 24 29 59 52 225 346 6 359 351 285 318 356 8 6 52 26 48 20 50 57 336 324 51 34 336 312 334 305 336 325 297 294 304 286 274 278 281 282 280 288
356 354 354 354 38 33 48 50 308 253 94 3 353 11 330 356 46 358 19 15 44 39 34 78 67 333 27 41 19 359 49 316 296 325 277 333 285 8 324 324 322 305 275 280 279
357 357 1 356 41 334 31 341 331 144 76 356 349 3 339 339 30 343 4 28 32 38 13 77 356 10 12 33 12 349 347 309 304 336 311 45 289 356 2 338 335 327 317 312 307
360 6 8 38 32 32 313 320 328 50 63 317 339 302 333 73 281 357 350 31 46 33 51 317 348 1 21 353 342 280 312 290 293 291 328 337 296 276 344 336 327 321 321 319 310
0 15 15 19 19 277 316 315 47 43 353 339 357 351 14 14 15 338 12 37 64 22 24 31 294 35 350 320 318 303 297 327 87 150 41 244 124 302 358 309 311 312 323 321 320
353 4 22 5 325 321 328 45 46 69 293 345 346 346 15 355 6 14 22 43 50 35 356 339 354 333 66 338 328 3 5 358 4 11 228 347 301 264 295 288 296 324 324 328 333
350 2 323 196 321 326 55 53 62 256 294 347 354 343 32 7 9 357 24 37 31 58 60 23 342 9 348 37 291 341 42 109 301 320 296 281 246 262 290 308 335 338 342 326 323
8 340 355 340 345 44 67 51 142 247 340 334 359 36 347 349 33 11 19 27 57 42 106 52 302 321 311 326 110 341 22 295 271 253 271 241 282 298 298 349 340 336 337 330 322
43 356 359 341 346 49 68 88 61 358 335 360 58 106 359 339 15 19 358 336 42 62 110 257 303 301 316 332 71 97 278 26 348 346 301 285 300 285 330 333 337 335 332 324 317
44 42 314 345 28 45 76 152 322 358 27 65 5 359 112 337 22 321 308 320 36 344 310 146 139 291 346 338 313 345 56 6 131 206 280 302 279 294 309 329 338 326 321 319 314
66 45 313 353 53 32 49 185 330 346 352 17 97 65 35 355 323 326 264 217 12 338 346 353 189 259 239 280 294 165 201 120 113 283 268 269 269 274 327 325 332 319 323 322 326
78 232 332 41 65 3 326 342 28 7 352 358 349 68 317 8 342 188 242 263 285 96 81 317 305 307 337 354 338 91 282 304 267 279 256 273 286 297 318 322 324 323 327 325 332
72 27 337 42 62 112 42 347 346 340 317 353 343 53 21 328 270 290 272 293 338 210 298 289 236 194 255 254 291 281 276 272 271 269 271 273 287 294 316 327 327 331 321 323 339
32 262 182 331 348 58 76 146 335 351 335 42 357 54 133 312 312 254 294 305 286 281 287 145 234 196 235 275 274 269 275 275 255 250 255 275 282 284 316 318 322 325 323 328 328
99 95 358 173 308 41 358 248 189 282 138 292 172 254 161 214 211 287 290 292 273 280 203 320 272 298 280 267 262 272 272 270 263 261 259 257 265 289 301 299 325 330 325 325 329
75 70 100 302 48 73 233 221 243 130 271 223 224 316 302 272 249 239 253 263 255 270 275 264 273 294 286 260 308 277 241 242 244 229 208 252 279 296 291 294 318 323 328 322 326